Weather Roundup
Issued by NWS Springfield, MO

Home | Current Version | Previous Version | Text Only | Print | Product List | Glossary On
Versions: 1 2 3 4 5 6 7 8 9 10 11 12 13 14 15 16 17 18 19 20 21 22 23 24 25 26 27 28 29 30 31 32 33 34 35 36 37 38 39 40 41 42 43 44 45 46 47 48 49 50
000
NZUS99 KSGF 281557
HRRSGF

HOURLY WEATHER
NATIONAL WEATHER SERVICE SPRINGFIELD MO
1100 AM CDT THU JUL 28 2016

......SGF CWA......

CITY           SKY/WX    TMP DP  RH WIND       PRES   REMARKS
SPRINGFIELD    SUNNY     86  74  67 NW7       29.97S HX  94
WEST PLAINS    MOSUNNY   84  74  71 VRB3      29.98F HX  91
ROLLA          MOSUNNY   84  72  67 NW12      29.94F
BRANSON        MOSUNNY   82  73  74 CALM      30.00S

......SURROUNDING SGF CWA......

CITY           SKY/WX    TMP DP  RH WIND       PRES   REMARKS
CHANUTE        TSTM      74  67  78 SE6       29.99F
PARSONS        CLOUDY    76  67  73 NE10G20   30.02R
COFFEYVILLE    MOSUNNY   89  75  63 N9        29.96S HX  99
EMPORIA        MOSUNNY   83  71  67 NE9       29.98F
HARRISON AR    PTSUNNY   82  74  76 NW6       30.00R

......KANSAS AND MISSOURI......

CITY           SKY/WX    TMP DP  RH WIND       PRES   REMARKS
KANSAS CTY INT PTSUNNY   82  69  64 NW8       29.98S
SEDALIA        CLOUDY    86  75  69 N5        29.96S HX  95
ST JOSEPH      SUNNY     82  72  71 N9        29.98S
ST LOUIS       MOSUNNY   87  73  62 W9        29.91S HX  94
WICHITA        MOSUNNY   89  71  55 VRB3      29.98R HX  95
TOPEKA           N/A     83  71  67 NE9       29.98F
OLATHE         PTSUNNY   84  69  60 N10       29.98S

......TENNESSEE......

CITY           SKY/WX    TMP DP  RH WIND       PRES   REMARKS
MEMPHIS        NOT AVBL
NASHVILLE      LGT RAIN  76  74  93 S5        29.93S FOG

......ARKANSAS.......

CITY           SKY/WX    TMP DP  RH WIND       PRES   REMARKS
FAYETTEVILLE   MOSUNNY   82  76  81 NW6       30.00S
FT SMITH       SUNNY     87  72  60 W3        29.97R HX  93
LITTLE ROCK    MOSUNNY   88  75  65 SW6       29.97R HX  97

......OKLAHOMA.......

CITY           SKY/WX    TMP DP  RH WIND       PRES   REMARKS
TULSA          MOSUNNY   87  76  69 NW7       29.95F HX  97
PONCA CITY     SUNNY     89  70  53 CALM      29.96F HX  94
MCALESTER      SUNNY     85  75  72 CALM      29.98F HX  93
OKLAHOMA CITY  MOSUNNY   86  73  65 VRB5      29.98F HX  93

......IOWA............

CITY           SKY/WX    TMP DP  RH WIND       PRES   REMARKS
DES MOINES     NOT AVBL
QUAD CITIES    MOSUNNY   84  69  60 W6        29.90R

......ILLINOIS........

CITY           SKY/WX    TMP DP  RH WIND       PRES   REMARKS
QUINCY         NOT AVBL
CHICAGO        PTSUNNY   83  70  64 NE8       29.89F




USA.gov is the U.S. government's official web portal to all federal, state and local government web resources and services.